01/01/2015 01:00, -2.47559
01/01/2015 02:00, -3.91111
01/01/2015 03:00, -4.53651
01/01/2015 04:00, -5.46717
01/01/2015 05:00, -5.47098
01/01/2015 06:00, -5.42264
01/01/2015 07:00, -5.25815
01/01/2015 08:00, -5.3072
01/01/2015 09:00, -5.29615
01/01/2015 10:00, -4.62327
01/01/2015 11:00, -3.31281
01/01/2015 12:00, -0.86072
01/01/2015 13:00, 2.52401
01/01/2015 14:00, 4.94656
01/01/2015 15:00, 3.58831
01/01/2015 16:00, 0.6563
01/01/2015 17:00, -2.17591
01/01/2015 18:00, -3.25172
01/01/2015 19:00, -3.53586
01/01/2015 20:00, -4.1088
01/01/2015 21:00, -4.6084
01/01/2015 22:00, -5.11436
01/01/2015 23:00, -5.57334
02/01/2015 00:00, -5.7717
02/01/2015 01:00, -6.08353
02/01/2015 02:00, -6.15952
02/01/2015 03:00, -6.09617
02/01/2015 04:00, -5.73459
02/01/2015 05:00, -5.62687
02/01/2015 06:00, -6.07899
02/01/2015 07:00, -5.07755
02/01/2015 08:00, -4.32953
02/01/2015 09:00, -3.64203
02/01/2015 10:00, -2.03779
02/01/2015 11:00, -0.2461
02/01/2015 12:00, 1.68197
02/01/2015 13:00, 3.91982
02/01/2015 14:00, 4.59493
02/01/2015 15:00, 3.54232
02/01/2015 16:00, 3.54147
02/01/2015 17:00, 2.23754
02/01/2015 18:00, 2.53793
02/01/2015 19:00, 2.87872
02/01/2015 20:00, 1.79296
02/01/2015 21:00, 2.06011
02/01/2015 22:00, 2.39303
02/01/2015 23:00, 1.69958
03/01/2015 00:00, 0.48483
03/01/2015 01:00, 0.94647
03/01/2015 02:00, 0.17703
03/01/2015 03:00, -0.30689
03/01/2015 04:00, -0.1005
03/01/2015 05:00, -0.24915
03/01/2015 06:00, 0.14291
03/01/2015 07:00, 0.23611
03/01/2015 08:00, -0.10618
03/01/2015 09:00, 0.05642
03/01/2015 10:00, 2.76418
03/01/2015 11:00, 4.13018
03/01/2015 12:00, 5.08129
03/01/2015 13:00, 5.86492
03/01/2015 14:00, 6.41204
03/01/2015 15:00, 6.45486
03/01/2015 16:00, 6.07226
03/01/2015 17:00, 4.79034
03/01/2015 18:00, 5.99819
03/01/2015 19:00, 6.75897
03/01/2015 20:00, 6.0393
03/01/2015 21:00, 5.81051
03/01/2015 22:00, 7.93014
03/01/2015 23:00, 7.84451
04/01/2015 00:00, 8.30935
04/01/2015 01:00, 9.11917
04/01/2015 02:00, 8.22085
04/01/2015 03:00, 7.0834
04/01/2015 04:00, 7.66857
04/01/2015 05:00, 8.203
04/01/2015 06:00, 8.33123
04/01/2015 07:00, 8.59774
04/01/2015 08:00, 7.47372
04/01/2015 09:00, 6.62829
04/01/2015 10:00, 5.67294
04/01/2015 11:00, 7.39349
04/01/2015 12:00, 7.94088
04/01/2015 13:00, 9.42617
04/01/2015 14:00, 9.96539
04/01/2015 15:00, 10.07043
04/01/2015 16:00, 8.24667
04/01/2015 17:00, 7.32507
04/01/2015 18:00, 5.89144
04/01/2015 19:00, 4.71295
04/01/2015 20:00, 3.55486
04/01/2015 21:00, 2.46111
04/01/2015 22:00, 1.47173
04/01/2015 23:00, 0.93054
05/01/2015 00:00, 0.64086
05/01/2015 01:00, 0.11602
05/01/2015 02:00, -0.2566
05/01/2015 03:00, -0.6995
05/01/2015 04:00, -0.91086
05/01/2015 05:00, -0.97581
05/01/2015 06:00, -1.32264
05/01/2015 07:00, -1.77964
05/01/2015 08:00, -1.84482
05/01/2015 09:00, -2.22748
05/01/2015 10:00, -1.00062
05/01/2015 11:00, 1.30834
05/01/2015 12:00, 3.57406
05/01/2015 13:00, 4.44598
05/01/2015 14:00, 5.51916
05/01/2015 15:00, 5.6253
05/01/2015 16:00, 4.86193
05/01/2015 17:00, 3.98324
05/01/2015 18:00, 1.23501
05/01/2015 19:00, 0.29159
05/01/2015 20:00, -0.53257
05/01/2015 21:00, -1.1785
05/01/2015 22:00, -1.70612
05/01/2015 23:00, -2.26395
06/01/2015 00:00, -2.84891
06/01/2015 01:00, -3.83481
06/01/2015 02:00, -3.97095
06/01/2015 03:00, -4.2652
06/01/2015 04:00, -4.84095
06/01/2015 05:00, -4.72254
06/01/2015 06:00, -4.34434
06/01/2015 07:00, -4.30494
06/01/2015 08:00, -4.54847
06/01/2015 09:00, -4.62263
06/01/2015 10:00, -2.31248
06/01/2015 11:00, 0.2218
06/01/2015 12:00, 3.09335
06/01/2015 13:00, 6.1495
06/01/2015 14:00, 6.87673
06/01/2015 15:00, 5.65182
06/01/2015 16:00, 2.09103
06/01/2015 17:00, 0.31509
06/01/2015 18:00, -1.19224
06/01/2015 19:00, -1.61051
06/01/2015 20:00, -1.42423
06/01/2015 21:00, -1.64139
06/01/2015 22:00, -1.90314
06/01/2015 23:00, -1.80912
07/01/2015 00:00, -1.62113
07/01/2015 01:00, -1.46107
07/01/2015 02:00, -1.98633
07/01/2015 03:00, -1.39487
07/01/2015 04:00, -1.74372
07/01/2015 05:00, -2.27381
07/01/2015 06:00, -2.35999
07/01/2015 07:00, -2.34403
07/01/2015 08:00, -2.46146
07/01/2015 09:00, -1.84345
07/01/2015 10:00, -0.49479
07/01/2015 11:00, 1.54485
07/01/2015 12:00, 2.36736
07/01/2015 13:00, 3.69262
07/01/2015 14:00, 4.66546
07/01/2015 15:00, 6.95074
07/01/2015 16:00, 5.68124
07/01/2015 17:00, 2.44909
07/01/2015 18:00, 1.02676
07/01/2015 19:00, 1.78613
07/01/2015 20:00, -0.353
07/01/2015 21:00, -0.81425
07/01/2015 22:00, -1.03345
07/01/2015 23:00, -1.17429
08/01/2015 00:00, -1.47541
08/01/2015 01:00, -1.74894
08/01/2015 02:00, -1.76157
08/01/2015 03:00, -2.51005
08/01/2015 04:00, -2.46723
08/01/2015 05:00, -2.91807
08/01/2015 06:00, -2.66926
08/01/2015 07:00, -3.20835
08/01/2015 08:00, -2.87571
08/01/2015 09:00, -3.5546
08/01/2015 10:00, -0.20466
08/01/2015 11:00, 3.79598
08/01/2015 12:00, 7.65084
08/01/2015 13:00, 8.26174
08/01/2015 14:00, 7.92928
08/01/2015 15:00, 6.2199
08/01/2015 16:00, 5.4399
08/01/2015 17:00, 4.18716
08/01/2015 18:00, 4.38888
08/01/2015 19:00, 5.24865
08/01/2015 20:00, 6.3525
08/01/2015 21:00, 6.55047
08/01/2015 22:00, 6.63284
08/01/2015 23:00, 7.11395
09/01/2015 00:00, 7.06832
09/01/2015 01:00, 6.93139
09/01/2015 02:00, 6.71063
09/01/2015 03:00, 6.55657
09/01/2015 04:00, 6.10815
09/01/2015 05:00, 5.95391
09/01/2015 06:00, 5.26028
09/01/2015 07:00, 4.90374
09/01/2015 08:00, 4.89706
09/01/2015 09:00, 5.52194
09/01/2015 10:00, 6.27188
09/01/2015 11:00, 7.21697
09/01/2015 12:00, 7.56411
09/01/2015 13:00, 7.90832
09/01/2015 14:00, 10.14724
09/01/2015 15:00, 9.29302
09/01/2015 16:00, 8.54733
09/01/2015 17:00, 7.91793
09/01/2015 18:00, 7.44146
09/01/2015 19:00, 7.39987
09/01/2015 20:00, 7.79928
09/01/2015 21:00, 7.94418
09/01/2015 22:00, 8.39581
09/01/2015 23:00, 8.61913
10/01/2015 00:00, 8.40914
10/01/2015 01:00, 7.94918
10/01/2015 02:00, 7.92437
10/01/2015 03:00, 8.16247
10/01/2015 04:00, 8.39059
10/01/2015 05:00, 9.23885
10/01/2015 06:00, 8.48251
10/01/2015 07:00, 8.49029
10/01/2015 08:00, 8.03677
10/01/2015 09:00, 8.39227
10/01/2015 10:00, 9.15215
10/01/2015 11:00, 11.0465
10/01/2015 12:00, 13.001
10/01/2015 13:00, 13.78802
10/01/2015 14:00, 14.56674
10/01/2015 15:00, 12.96285
10/01/2015 16:00, 11.3514
10/01/2015 17:00, 10.72097
10/01/2015 18:00, 10.62737
10/01/2015 19:00, 11.00561
10/01/2015 20:00, 10.67681
10/01/2015 21:00, 9.58633
10/01/2015 22:00, 9.85446
10/01/2015 23:00, 9.67806
11/01/2015 00:00, 9.03942
11/01/2015 01:00, 8.81051
11/01/2015 02:00, 9.74731
11/01/2015 03:00, 9.11477
11/01/2015 04:00, 8.75906
11/01/2015 05:00, 8.74316
11/01/2015 06:00, 9.0971
11/01/2015 07:00, 9.32174
11/01/2015 08:00, 7.99084
11/01/2015 09:00, 5.40911
11/01/2015 10:00, 6.17016
11/01/2015 11:00, 5.65975
11/01/2015 12:00, 4.25347
11/01/2015 13:00, 5.82662
11/01/2015 14:00, 6.62911
11/01/2015 15:00, 6.44644
11/01/2015 16:00, 6.07418
11/01/2015 17:00, 4.60131
11/01/2015 18:00, 3.50634
11/01/2015 19:00, 2.56222
11/01/2015 20:00, 2.27917
11/01/2015 21:00, 1.914
11/01/2015 22:00, 2.44824
11/01/2015 23:00, 2.54525
12/01/2015 00:00, 1.68932
12/01/2015 01:00, 0.68899
12/01/2015 02:00, 0.42092
12/01/2015 03:00, 0.3735
12/01/2015 04:00, -1.34537
12/01/2015 05:00, -2.2573
12/01/2015 06:00, -1.95466
12/01/2015 07:00, -2.2064
12/01/2015 08:00, -0.49573
12/01/2015 09:00, -1.22452
12/01/2015 10:00, 1.76232
12/01/2015 11:00, 2.38494
12/01/2015 12:00, 0.77749
12/01/2015 13:00, 3.95019
12/01/2015 14:00, 6.17086
12/01/2015 15:00, 7.04556
12/01/2015 16:00, 2.42492
12/01/2015 17:00, 0.83499
12/01/2015 18:00, -0.18073
12/01/2015 19:00, -0.49952
12/01/2015 20:00, -0.01142
12/01/2015 21:00, -0.29206
12/01/2015 22:00, 0.74777
12/01/2015 23:00, -1.21622
13/01/2015 00:00, -0.08057
13/01/2015 01:00, 2.30532
13/01/2015 02:00, -3.0608
13/01/2015 03:00, -4.61393
13/01/2015 04:00, -6.1265
13/01/2015 05:00, -5.04484
13/01/2015 06:00, -5.59254
13/01/2015 07:00, -1.74009
13/01/2015 08:00, -1.08915
13/01/2015 09:00, 1.61581
13/01/2015 10:00, 4.42452
13/01/2015 11:00, 7.06423
13/01/2015 12:00, 9.95098
13/01/2015 13:00, 11.19641
13/01/2015 14:00, 13.40133
13/01/2015 15:00, 11.83938
13/01/2015 16:00, 11.79818
13/01/2015 17:00, 10.82601
13/01/2015 18:00, 9.247
13/01/2015 19:00, 9.99917
13/01/2015 20:00, 9.34484
13/01/2015 21:00, 9.5408
13/01/2015 22:00, 9.27947
13/01/2015 23:00, 9.27459
14/01/2015 00:00, 9.80819
14/01/2015 01:00, 9.2918
14/01/2015 02:00, 8.91802
14/01/2015 03:00, 8.74633
14/01/2015 04:00, 8.74554
14/01/2015 05:00, 8.58648
14/01/2015 06:00, 8.07961
14/01/2015 07:00, 8.02157
14/01/2015 08:00, 7.75253
14/01/2015 09:00, 7.8406
14/01/2015 10:00, 7.28347
14/01/2015 11:00, 7.51739
14/01/2015 12:00, 8.49038
14/01/2015 13:00, 10.24102
14/01/2015 14:00, 9.94167
14/01/2015 15:00, 9.6553
14/01/2015 16:00, 9.21505
14/01/2015 17:00, 8.46426
14/01/2015 18:00, 7.62612
14/01/2015 19:00, 7.02078
14/01/2015 20:00, 7.02465
14/01/2015 21:00, 6.66842
14/01/2015 22:00, 6.53314
14/01/2015 23:00, 5.84643
15/01/2015 00:00, 5.0704
15/01/2015 01:00, 4.99673
15/01/2015 02:00, 4.70297
15/01/2015 03:00, 4.82974
15/01/2015 04:00, 5.02978
15/01/2015 05:00, 5.16589
15/01/2015 06:00, 4.96389
15/01/2015 07:00, 4.88629
15/01/2015 08:00, 5.1014
15/01/2015 09:00, 5.14581
15/01/2015 10:00, 5.97659
15/01/2015 11:00, 6.91699
15/01/2015 12:00, 7.59731
15/01/2015 13:00, 8.56704
15/01/2015 14:00, 9.59927
15/01/2015 15:00, 9.95327
15/01/2015 16:00, 10.10778
15/01/2015 17:00, 9.31771
15/01/2015 18:00, 8.32574
15/01/2015 19:00, 6.92919
15/01/2015 20:00, 6.1683
15/01/2015 21:00, 6.43792
15/01/2015 22:00, 6.21163
15/01/2015 23:00, 5.58376
16/01/2015 00:00, 5.58724
16/01/2015 01:00, 5.49886
16/01/2015 02:00, 5.05581
16/01/2015 03:00, 3.98907
16/01/2015 04:00, 3.84167
16/01/2015 05:00, 3.84597
16/01/2015 06:00, 4.04943
16/01/2015 07:00, 4.25485
16/01/2015 08:00, 4.10397
16/01/2015 09:00, 3.98516
16/01/2015 10:00, 4.53243
16/01/2015 11:00, 5.14218
16/01/2015 12:00, 5.93646
16/01/2015 13:00, 6.53033
16/01/2015 14:00, 7.37258
16/01/2015 15:00, 6.96966
16/01/2015 16:00, 6.37234
16/01/2015 17:00, 5.76098
16/01/2015 18:00, 5.69695
16/01/2015 19:00, 5.37811
16/01/2015 20:00, 4.51794
16/01/2015 21:00, 3.3601
16/01/2015 22:00, 2.52126
16/01/2015 23:00, 1.61645
17/01/2015 00:00, 1.40188
17/01/2015 01:00, 1.49719
17/01/2015 02:00, 1.6387
17/01/2015 03:00, 1.59368
17/01/2015 04:00, 0.89428
17/01/2015 05:00, 1.41552
17/01/2015 06:00, 1.69488
17/01/2015 07:00, 1.45748
17/01/2015 08:00, -0.0922
17/01/2015 09:00, 1.89877
17/01/2015 10:00, 3.35836
17/01/2015 11:00, 3.62908
17/01/2015 12:00, 2.8211
17/01/2015 13:00, 3.71041
17/01/2015 14:00, 4.68176
17/01/2015 15:00, 5.62972
17/01/2015 16:00, 3.08245
17/01/2015 17:00, 2.80242
17/01/2015 18:00, 1.43752
17/01/2015 19:00, 0.55557
17/01/2015 20:00, -0.87058
17/01/2015 21:00, -2.21589
17/01/2015 22:00, -1.76319
17/01/2015 23:00, -2.5051
18/01/2015 00:00, -3.66129
18/01/2015 01:00, -3.76176
18/01/2015 02:00, -4.64356
18/01/2015 03:00, -4.72358
18/01/2015 04:00, -4.17252
18/01/2015 05:00, -4.49485
18/01/2015 06:00, -5.28223
18/01/2015 07:00, -4.86048
18/01/2015 08:00, -4.83076
18/01/2015 09:00, -4.0105
18/01/2015 10:00, -1.3292
18/01/2015 11:00, -1.4401
18/01/2015 12:00, -1.64628
18/01/2015 13:00, 5.13873
18/01/2015 14:00, 4.72421
18/01/2015 15:00, 2.51403
18/01/2015 16:00, 1.61239
18/01/2015 17:00, 0.83123
18/01/2015 18:00, -0.25214
18/01/2015 19:00, -1.38676
18/01/2015 20:00, -1.90122
18/01/2015 21:00, -2.22895
18/01/2015 22:00, -2.32038
18/01/2015 23:00, -2.16163
19/01/2015 00:00, -2.35505
19/01/2015 01:00, -2.12598
19/01/2015 02:00, -1.85709
19/01/2015 03:00, -1.88602
19/01/2015 04:00, -1.831
19/01/2015 05:00, -1.79001
19/01/2015 06:00, -1.69471
19/01/2015 07:00, -1.42377
19/01/2015 08:00, -1.25864
19/01/2015 09:00, -1.23475
19/01/2015 10:00, -0.89185
19/01/2015 11:00, -0.37058
19/01/2015 12:00, 0.23138
19/01/2015 13:00, 1.42242
19/01/2015 14:00, 9.3424
19/01/2015 15:00, 6.34127
19/01/2015 16:00, 1.64681
19/01/2015 17:00, -0.6775
19/01/2015 18:00, -1.65143
19/01/2015 19:00, -1.86771
19/01/2015 20:00, -2.2764
19/01/2015 21:00, -3.40436
19/01/2015 22:00, -4.15528
19/01/2015 23:00, -4.84891
20/01/2015 00:00, -5.04191
20/01/2015 01:00, -4.99412
20/01/2015 02:00, -3.04993
20/01/2015 03:00, -3.78541
20/01/2015 04:00, -3.90256
20/01/2015 05:00, -4.04267
20/01/2015 06:00, -2.6547
20/01/2015 07:00, -1.59937
20/01/2015 08:00, -1.26197
20/01/2015 09:00, -1.02646
20/01/2015 10:00, 0.03158
20/01/2015 11:00, 0.66683
20/01/2015 12:00, 1.36276
20/01/2015 13:00, 1.80074
20/01/2015 14:00, 2.09829
20/01/2015 15:00, 2.09316
20/01/2015 16:00, 1.68151
20/01/2015 17:00, 1.15835
20/01/2015 18:00, 0.93939
20/01/2015 19:00, 0.84661
20/01/2015 20:00, 0.73467
20/01/2015 21:00, 0.6546
20/01/2015 22:00, 0.64794
20/01/2015 23:00, 0.55508
21/01/2015 00:00, 0.5642
21/01/2015 01:00, 0.47671
21/01/2015 02:00, 0.45098
21/01/2015 03:00, 0.34899
21/01/2015 04:00, 0.2987
21/01/2015 05:00, 0.42718
21/01/2015 06:00, 0.35067
21/01/2015 07:00, 0.41061
21/01/2015 08:00, 0.35928
21/01/2015 09:00, 0.40408
21/01/2015 10:00, 1.77508
21/01/2015 11:00, 2.63595
21/01/2015 12:00, 4.13558
21/01/2015 13:00, 3.9804
21/01/2015 14:00, 3.27188
21/01/2015 15:00, 2.54266
21/01/2015 16:00, 1.7601
21/01/2015 17:00, 0.64645
21/01/2015 18:00, -0.04252
21/01/2015 19:00, -0.2443
21/01/2015 20:00, -0.07725
21/01/2015 21:00, -0.01389
21/01/2015 22:00, -0.00568
21/01/2015 23:00, -0.03663
22/01/2015 00:00, -0.13871
22/01/2015 01:00, 0.13949
22/01/2015 02:00, -0.13743
22/01/2015 03:00, -0.46155
22/01/2015 04:00, -0.40516
22/01/2015 05:00, -0.33509
22/01/2015 06:00, -0.50764
22/01/2015 07:00, -0.62699
22/01/2015 08:00, -0.5452
22/01/2015 09:00, -0.32661
22/01/2015 10:00, 0.23235
22/01/2015 11:00, 0.66351
22/01/2015 12:00, 1.29543
22/01/2015 13:00, 1.93722
22/01/2015 14:00, 2.46255
22/01/2015 15:00, 2.62301
22/01/2015 16:00, 2.25134
22/01/2015 17:00, 1.88995
22/01/2015 18:00, 1.25802
22/01/2015 19:00, 1.48168
22/01/2015 20:00, 1.01043
22/01/2015 21:00, 0.65753
22/01/2015 22:00, 0.3579
22/01/2015 23:00, 0.57379
23/01/2015 00:00, 0.92291
23/01/2015 01:00, 1.09243
23/01/2015 02:00, 1.00491
23/01/2015 03:00, 1.02111
23/01/2015 04:00, 0.7875
23/01/2015 05:00, 0.59673
23/01/2015 06:00, 0.44741
23/01/2015 07:00, 0.1499
23/01/2015 08:00, -0.20234
23/01/2015 09:00, -0.30262
23/01/2015 10:00, 0.11221
23/01/2015 11:00, 0.52783
23/01/2015 12:00, 0.68298
23/01/2015 13:00, 0.94561
23/01/2015 14:00, 1.10403
23/01/2015 15:00, 1.14004
23/01/2015 16:00, 0.70571
23/01/2015 17:00, 0.02712
23/01/2015 18:00, -0.43735
23/01/2015 19:00, -0.44269
23/01/2015 20:00, -0.37672
23/01/2015 21:00, -0.32267
23/01/2015 22:00, -0.43577
23/01/2015 23:00, -0.41639
24/01/2015 00:00, -0.26969
24/01/2015 01:00, -0.20463
24/01/2015 02:00, -0.14396
24/01/2015 03:00, 0.07986
24/01/2015 04:00, 0.20364
24/01/2015 05:00, 0.12301
24/01/2015 06:00, -0.37223
24/01/2015 07:00, -0.50229
24/01/2015 08:00, -0.74558
24/01/2015 09:00, -0.79423
24/01/2015 10:00, 0.74307
24/01/2015 11:00, 1.52477
24/01/2015 12:00, 0.63339
24/01/2015 13:00, 3.06106
24/01/2015 14:00, 3.9656
24/01/2015 15:00, 2.63488
24/01/2015 16:00, -0.84638
24/01/2015 17:00, -2.35575
24/01/2015 18:00, -3.67213
24/01/2015 19:00, -2.35044
24/01/2015 20:00, -2.44346
24/01/2015 21:00, -2.58869
24/01/2015 22:00, -2.35981
24/01/2015 23:00, -2.10978
25/01/2015 00:00, -2.172
25/01/2015 01:00, -1.99369
25/01/2015 02:00, -1.67997
25/01/2015 03:00, -1.52799
25/01/2015 04:00, -1.44291
25/01/2015 05:00, -1.46653
25/01/2015 06:00, -1.33066
25/01/2015 07:00, -1.03779
25/01/2015 08:00, -0.91215
25/01/2015 09:00, -0.55338
25/01/2015 10:00, 0.61489
25/01/2015 11:00, 1.68936
25/01/2015 12:00, 2.30056
25/01/2015 13:00, 3.43487
25/01/2015 14:00, 3.41451
25/01/2015 15:00, 2.56411
25/01/2015 16:00, 1.64547
25/01/2015 17:00, 1.24337
25/01/2015 18:00, 0.14333
25/01/2015 19:00, -0.55366
25/01/2015 20:00, -1.05186
25/01/2015 21:00, -1.25205
25/01/2015 22:00, -1.75159
25/01/2015 23:00, -1.54777
26/01/2015 00:00, -1.90192
26/01/2015 01:00, -1.75797
26/01/2015 02:00, -1.56022
26/01/2015 03:00, -2.10901
26/01/2015 04:00, -2.61146
26/01/2015 05:00, -2.70011
26/01/2015 06:00, -2.57001
26/01/2015 07:00, -2.73121
26/01/2015 08:00, -2.30509
26/01/2015 09:00, -2.26771
26/01/2015 10:00, -1.53657
26/01/2015 11:00, -0.99491
26/01/2015 12:00, -0.24387
26/01/2015 13:00, 2.32455
26/01/2015 14:00, 5.2973
26/01/2015 15:00, 3.00286
26/01/2015 16:00, -1.54188
26/01/2015 17:00, -1.94565
26/01/2015 18:00, -2.97559
26/01/2015 19:00, -2.84507
26/01/2015 20:00, -2.96622
26/01/2015 21:00, -2.78742
26/01/2015 22:00, -2.40696
26/01/2015 23:00, -2.22166
27/01/2015 00:00, -2.12809
27/01/2015 01:00, -1.24763
27/01/2015 02:00, -1.0662
27/01/2015 03:00, -0.59888
27/01/2015 04:00, -0.78461
27/01/2015 05:00, -0.82987
27/01/2015 06:00, -1.31226
27/01/2015 07:00, -0.61863
27/01/2015 08:00, 0.09869
27/01/2015 09:00, 0.56509
27/01/2015 10:00, 0.37216
27/01/2015 11:00, 1.35168
27/01/2015 12:00, 3.10165
27/01/2015 13:00, 4.21511
27/01/2015 14:00, 4.28893
27/01/2015 15:00, 4.16168
27/01/2015 16:00, 3.54846
27/01/2015 17:00, 2.75714
27/01/2015 18:00, 2.01617
27/01/2015 19:00, 1.44729
27/01/2015 20:00, 0.56915
27/01/2015 21:00, -0.01139
27/01/2015 22:00, -0.86667
27/01/2015 23:00, -0.98942
28/01/2015 00:00, -1.16877
28/01/2015 01:00, -2.3263
28/01/2015 02:00, -2.71805
28/01/2015 03:00, -2.57419
28/01/2015 04:00, -3.02708
28/01/2015 05:00, -3.75849
28/01/2015 06:00, -4.29932
28/01/2015 07:00, -4.72462
28/01/2015 08:00, -5.77549
28/01/2015 09:00, -4.82627
28/01/2015 10:00, -1.25675
28/01/2015 11:00, -0.22162
28/01/2015 12:00, -1.52689
28/01/2015 13:00, 1.43499
28/01/2015 14:00, 2.99169
28/01/2015 15:00, 3.5986
28/01/2015 16:00, 1.58801
28/01/2015 17:00, 0.62438
28/01/2015 18:00, -0.01121
28/01/2015 19:00, 0.19488
28/01/2015 20:00, 0.50195
28/01/2015 21:00, 0.20046
28/01/2015 22:00, -0.33549
28/01/2015 23:00, -0.12891
29/01/2015 00:00, -0.0232
29/01/2015 01:00, 0.45748
29/01/2015 02:00, 0.44836
29/01/2015 03:00, 0.63821
29/01/2015 04:00, 0.95022
29/01/2015 05:00, 2.06857
29/01/2015 06:00, 2.51299
29/01/2015 07:00, 2.27157
29/01/2015 08:00, 2.45349
29/01/2015 09:00, 2.77795
29/01/2015 10:00, 4.02871
29/01/2015 11:00, 4.48742
29/01/2015 12:00, 4.19735
29/01/2015 13:00, 3.70364
29/01/2015 14:00, 4.93978
29/01/2015 15:00, 4.31643
29/01/2015 16:00, 3.89733
29/01/2015 17:00, 3.14224
29/01/2015 18:00, 2.93148
29/01/2015 19:00, 3.41305
29/01/2015 20:00, 2.9804
29/01/2015 21:00, 3.21938
29/01/2015 22:00, 3.32137
29/01/2015 23:00, 3.51104
30/01/2015 00:00, 3.20858
30/01/2015 01:00, 3.5043
30/01/2015 02:00, 3.90869
30/01/2015 03:00, 3.35409
30/01/2015 04:00, 3.1885
30/01/2015 05:00, 0.81951
30/01/2015 06:00, 0.38491
30/01/2015 07:00, -0.28559
30/01/2015 08:00, -0.66105
30/01/2015 09:00, -0.51346
30/01/2015 10:00, -0.46345
30/01/2015 11:00, -0.20676
30/01/2015 12:00, 1.29424
30/01/2015 13:00, 2.14385
30/01/2015 14:00, 5.53219
30/01/2015 15:00, 4.31295
30/01/2015 16:00, 2.44262
30/01/2015 17:00, 0.24545
30/01/2015 18:00, -0.85026
30/01/2015 19:00, -1.02756
30/01/2015 20:00, -1.09601
30/01/2015 21:00, -0.19031
30/01/2015 22:00, 1.01098
30/01/2015 23:00, 1.19433
31/01/2015 00:00, 0.59332
31/01/2015 01:00, 0.50607
31/01/2015 02:00, 0.949
31/01/2015 03:00, 1.26489
31/01/2015 04:00, 1.26156
31/01/2015 05:00, 0.96548
31/01/2015 06:00, 0.01461
31/01/2015 07:00, -0.57084
31/01/2015 08:00, -1.18079
31/01/2015 09:00, -0.62281
31/01/2015 10:00, 0.67385
31/01/2015 11:00, 2.16503
31/01/2015 12:00, 3.8142
31/01/2015 13:00, 2.54016
31/01/2015 14:00, 2.19079
31/01/2015 15:00, 4.69644
31/01/2015 16:00, 2.88693
31/01/2015 17:00, 1.38476
31/01/2015 18:00, -0.18076
31/01/2015 19:00, -0.76758
31/01/2015 20:00, -0.40214
31/01/2015 21:00, -0.55271
31/01/2015 22:00, -0.57715
31/01/2015 23:00, -0.32645
01/02/2015 00:00, -0.02476
01/02/2015 01:00, 0.19354
01/02/2015 02:00, -0.70768
01/02/2015 03:00, -0.56748
01/02/2015 04:00, -0.45554
01/02/2015 05:00, -0.36756
01/02/2015 06:00, -0.49186
01/02/2015 07:00, -0.62235
01/02/2015 08:00, 0.03918
01/02/2015 09:00, -0.14933
01/02/2015 10:00, 0.7514
01/02/2015 11:00, 1.51315
01/02/2015 12:00, 2.31146
01/02/2015 13:00, 2.98089
01/02/2015 14:00, 3.10784
01/02/2015 15:00, 2.53875
01/02/2015 16:00, 2.67837
01/02/2015 17:00, 1.59951
01/02/2015 18:00, 0.62527
01/02/2015 19:00, -0.14088
01/02/2015 20:00, -0.21299
01/02/2015 21:00, 0.05135
01/02/2015 22:00, -0.27967
01/02/2015 23:00, -0.89426
02/02/2015 00:00, -1.12412
02/02/2015 01:00, -1.26282
02/02/2015 02:00, -1.30256
02/02/2015 03:00, -1.38801
02/02/2015 04:00, -1.13343
02/02/2015 05:00, -1.33652
02/02/2015 06:00, -1.08967
02/02/2015 07:00, -1.36631
02/02/2015 08:00, -1.24995
02/02/2015 09:00, -0.99451
02/02/2015 10:00, 0.3251
02/02/2015 11:00, 1.25112
02/02/2015 12:00, 1.8684
02/02/2015 13:00, 2.41442
02/02/2015 14:00, 3.5805
02/02/2015 15:00, 3.55432
02/02/2015 16:00, 2.98391
02/02/2015 17:00, 2.00485
02/02/2015 18:00, 0.71234
02/02/2015 19:00, -0.0279
02/02/2015 20:00, -0.59205
02/02/2015 21:00, -1.6807
02/02/2015 22:00, -2.57123
02/02/2015 23:00, -2.63755
03/02/2015 00:00, -2.58997
03/02/2015 01:00, -2.81956
03/02/2015 02:00, -3.66138
03/02/2015 03:00, -3.82148
03/02/2015 04:00, -4.35416
03/02/2015 05:00, -4.43824
03/02/2015 06:00, -4.31071
03/02/2015 07:00, -4.03516
03/02/2015 08:00, -3.94111
03/02/2015 09:00, -3.61249
03/02/2015 10:00, -2.89692
03/02/2015 11:00, -1.81693
03/02/2015 12:00, -0.60975
03/02/2015 13:00, 0.44955
03/02/2015 14:00, 1.1481
03/02/2015 15:00, 0.86584
03/02/2015 16:00, 0.09573
03/02/2015 17:00, -0.89295
03/02/2015 18:00, -1.87379
03/02/2015 19:00, -2.42365
03/02/2015 20:00, -3.08945
03/02/2015 21:00, -3.42722
03/02/2015 22:00, -2.91688
03/02/2015 23:00, -2.42814
04/02/2015 00:00, -2.72703
04/02/2015 01:00, -3.1153
04/02/2015 02:00, -3.1551
04/02/2015 03:00, -3.45911
04/02/2015 04:00, -3.65351
04/02/2015 05:00, -3.66291
04/02/2015 06:00, -3.71635
04/02/2015 07:00, -3.70615
04/02/2015 08:00, -3.56742
04/02/2015 09:00, -3.60398
04/02/2015 10:00, -3.03242
04/02/2015 11:00, -2.52213
04/02/2015 12:00, -1.42063
04/02/2015 13:00, -0.29355
04/02/2015 14:00, -0.5413
04/02/2015 15:00, -0.69233
04/02/2015 16:00, -1.45515
04/02/2015 17:00, -2.14857
04/02/2015 18:00, -2.35236
04/02/2015 19:00, -2.15101
04/02/2015 20:00, -2.10331
04/02/2015 21:00, -2.20338
04/02/2015 22:00, -2.55179
04/02/2015 23:00, -3.10294
05/02/2015 00:00, -3.55479
05/02/2015 01:00, -3.70307
05/02/2015 02:00, -3.90327
05/02/2015 03:00, -4.0535
05/02/2015 04:00, -3.90208
05/02/2015 05:00, -3.85389
05/02/2015 06:00, -3.853
05/02/2015 07:00, -3.85282
05/02/2015 08:00, -3.90253
05/02/2015 09:00, -3.60343
05/02/2015 10:00, -3.28327
05/02/2015 11:00, -2.81681
05/02/2015 12:00, -2.10245
05/02/2015 13:00, -1.69758
05/02/2015 14:00, -1.75199
05/02/2015 15:00, -1.96113
05/02/2015 16:00, -2.53589
05/02/2015 17:00, -2.95142
05/02/2015 18:00, -3.45426
05/02/2015 19:00, -3.60346
05/02/2015 20:00, -3.7038
05/02/2015 21:00, -3.80442
05/02/2015 22:00, -3.85209
05/02/2015 23:00, -3.75245
06/02/2015 00:00, -3.90208
06/02/2015 01:00, -3.70304
06/02/2015 02:00, -3.40101
06/02/2015 03:00, -3.14988
06/02/2015 04:00, -2.84803
06/02/2015 05:00, -2.60099
06/02/2015 06:00, -2.55112
06/02/2015 07:00, -2.55189
06/02/2015 08:00, -2.75095
06/02/2015 09:00, -3.0026
06/02/2015 10:00, -2.8519
06/02/2015 11:00, -2.74991
06/02/2015 12:00, -2.79474
06/02/2015 13:00, -2.89561